Location: Springfield
(37.2150°N, 93.2980°W)
Time: 08:06:02
(UTC-05:00)

NOSS 3-4 (C) - Pass Details

Date: 19 April 2018
Orbit: 943 x 1269 km, 63.4° (Epoch: 25 April)

Event Time Altitude Azimuth Distance (km) Brightness Sun altitude
Rises 23:25:45 0° 325° (NW) 3,903 7.7 -35.3°
Reaches altitude 10° 23:28:21 10° 323° (NW) 2,988 6.8 -35.5°
Enters shadow 23:34:16 59° 289° (WNW) 1,329 4.2 -36.1°
